SCP
0 0 0 0 0 0 -0 -0 -0 -0 -0 -0 -0 -0 -0 -0 -0 -0 -0 -0 -0 -0 -0 -0 -0 -0 -0 -0 -0 -0 -0 -0 -0 -0 -0 -0 -0 -0 -0 -0 -0 -0 0
0 0 0 0 0 0 0 -0 -0 -0 -0 -0 -0 -0 -0 -0 -0 -0 -0 -0 -0 -0 -0 -0 -0 -0 -0 -0 -0 -0 -0 -0 -0 -0 -0 -0 -0 -0 -0 -0 -0 0 0
0 0 0 0 0 0 0 0 -0 -0 -0 -0 -0 -0 -0 -0 -0 -0 -0 -0 -0 -0 -0 -0 -0 -0 -0 -0 -0 -0 -0 -0 -0 -0 -0 -0 -0 -0 -0 -0 0 0 0
0 0 0 0 0 0 0 0 -0 -0 -0 -0 -0 -0 -0 -0 -0 -0 -0 -0 -0 -0 -0 -0 -0 -0 -0 -0 -0 -0 -0 -0 -0 -0 -0 -0 -0 -0 -0 -0 -0 0 0
0 0 0 0 0 0 0 -0 -0 -0 -0 -0 -0 -0 -0 -0 -0 -0 -0 -0 -0 -0 -0 -0 -0 -0 -0 -0 -0 -0 -0 -0 -0 -0 -0 0 0 -0 -0 -0 -0 -0 0
0 0 0 0 0 0 -0 -0 -0 -0 -0 -0 -0 -0 -0 -0 -0 -0 -0 -0 -0 -0 -0 -0 -0 -0 -0 -0 -0 -0 -0 -0 -0 -0 -0 0 0 0 -0 -0 -0 -0 -0
0 0 0 0 0 0 -0 -0 -0 -0 -0 -0 -0 -0 -0 -0 -0 -0 -0 -0 -0 -0 -0 -0 -0 -0 -0 -0 -0 -0 -0 -0 -0 -0 0 0 0 0 0 -0 -0 -0 -0
0 0 0 0 0 0 -0 -0 -0 -0 -0 -0 -0 -0 -0 -0 -0 -0 -0 -0 -0 -0 -0 -0 -0 -0 -0 -0 -0 -0 -0 -0 -0 0 0 0 0 0 0 0 0 0 0
0 0 0 0 0 0 -0 -0 -0 -0 -0 -0 -0 -0 -0 -0 -0 -0 -0 -0 -0 -0 -0 -0 -0 -0 -0 -0 -0 -0 -0 0 0 0 0 0 0 0 0 0 0 0 0
0 0 0 0 0 0 0 0 0 -0 -0 -0 -0 -0 -0 -0 -0 -0 -0 -0 -0 -0 -0 -0 -0 -0 -0 -0 0 0 0 0 0 0 0 0 0 0 0 0 0 0 0
0 0 0 0 0 0 0 0 0 0 -0 -0 -0 -0 -0 -0 -0 -0 -0 -0 -0 -0 -0 -0 -0 -0 0 0 0 0 0 0 0 0 0 0 0 0 0 0 0 0 0
0 0 0 0 0 0 0 0 0 0 0 -0 -0 -0 -0 -0 -0 -0 -0 -0 -0 -0 -0 -0 0 0 0 0 0 0 0 0 0 0 0 0 0 0 0 0 0 0 0
0 0 0 0 0 0 0 0 0 0 0 0 0 0 -0 -0 -0 0 0 0 0 0 0 0 0 0 0 0 0 0 0 0 0 0 0 0 0 0 0 0 0 0 0
0 0 0 0 0 0 0 0 0 0 0 0 0 0 0 0 0 0 0 0 0 0 0 0 0 0 0 0 0 0 0 0 0 0 0 0 0 0 0 0 0 0 0
0 0 0 0 0 0 0 0 0 0 0 0 0 0 0 0 0 0 0 0 0 0 0 0 0 0 0 0 0 0 0 0 0 0 0 0 0 0 0 0 0 0 0
0 0 0 0 0 0 0 0 0 0 0 0 0 0 0 0 0 0 0 0 0 0 0 0 0 0 0 0 0 0 0 0 0 0 0 0 0 0 0 0 0 0 0
0 0 0 0 0 0 0 0 0 0 0 0 0 0 0 0 0 0 0 0 0 0 0 0 0 0 0 0 0 0 0 0 0 0 0 0 0 0 0 0 0 0 0
0 0 0 0 0 0 0 0 0 0 0 0 0 0 0 0 0 0 0 0 0 0 0 0 0 0 0 0 0 0 0 0 0 0 0 0 0 0 0 0 0 0 0
1 1 0 0 0 0 0 0 0 0 0 0 0 0 0 0 0 0 0 0 0 0 0 0 0 0 0 0 0 0 0 0 0 0 0 0 0 0 0 0 0 0 0
1 1 0 0 0 0 0 0 0 0 0 0 0 0 0 0 0 0 0 0 0 0 0 0 0 0 0 0 0 0 0 0 0 0 0 0 0 0 0 0 0 0 0
1 1 1 0 0 0 0 0 0 0 0 0 0 0 0 0 0 0 0 0 0 0 0 0 0 0 0 0 0 0 0 0 0 0 0 0 0 0 0 0 0 0 0
1 1 1 1 1 0 0 0 0 0 0 0 0 0 0 0 0 0 0 0 0 0 0 0 0 0 0 0 0 0 0 0 0 0 0 0 0 0 0 0 0 0 0
1 1 1 1 1 0 0 0 0 0 0 0 0 0 0 0 0 0 0 0 0 0 0 1 1 1 0 0 0 0 0 0 0 0 0 0 0 0 0 0 0 1 1
1 1 1 1 1 1 0 0 0 0 0 0 0 0 0 0 0 0 0 0 0 0 0 0 0 0 0 0 0 0 0 0 0 0 0 0 0 0 0 0 0 0 1
1 1 1 1 1 1 0 0 0 0 0 0 0 0 1 1 0 0 0 0 0 0 0 0 0 0 0 0 0 0 0 0 0 0 0 0 0 0 0 0 0 1 1
1 1 1 1 1 1 1 0 0 0 0 0 0 0 1 1 1 0 0 1 0 0 0 0 0 0 0 0 0 0 1 1 0 0 0 0 0 0 0 1 1 1 1
Wind_Speed
9 11 12 14 14 15 16 15 15 16 15 15 15 15 15 15 15 15 15 15 14 14 13 12 12 11 11 11 11 11 12 11 11 12 13 12 11 10 10 10 10 11 13
13 12 13 14 15 15 15 15 15 15 15 15 14 14 14 15 14 14 14 13 13 13 12 11 11 10 10 10 10 10 10 10 10 11 11 11 11 10 9 9 11 9 12
14 13 13 14 15 15 15 15 14 15 14 14 13 13 14 13 13 13 13 13 12 12 11 11 11 10 10 9 9 9 8 8 8 9 9 7 8 10 10 11 12 12 11
15 12 13 15 15 15 15 14 14 14 14 13 13 12 12 12 12 12 12 11 11 10 10 10 10 9 9 8 8 7 6 6 6 6 4 5 7 10 11 11 10 11 10
15 13 14 16 15 14 14 13 12 13 13 13 12 11 11 11 11 11 10 10 9 9 9 9 9 9 8 7 6 5 4 3 4 3 2 6 6 10 10 10 9 10 9
16 15 14 15 15 14 13 12 12 11 12 11 11 10 10 10 10 9 9 8 8 8 8 8 8 8 7 7 5 4 2 2 4 2 4 7 7 9 10 9 8 8 8
15 15 14 15 15 14 13 12 11 10 10 10 10 9 9 9 9 8 8 7 7 7 7 7 7 7 6 5 4 2 2 4 4 0 4 7 7 10 9 8 8 8 8
16 15 14 15 15 14 13 12 11 10 10 10 10 9 9 8 8 8 7 7 7 6 6 6 6 6 5 5 4 3 4 6 3 1 4 7 9 10 9 8 8 8 8
16 15 13 12 12 13 12 11 11 10 9 9 9 9 8 8 8 8 7 7 7 6 6 6 5 5 5 4 4 5 5 6 4 1 4 6 10 10 9 8 8 7 7
13 14 13 12 11 10 10 11 10 10 9 8 8 9 9 8 8 8 7 7 7 6 6 6 5 5 5 5 5 6 7 7 4 2 4 7 10 10 9 9 8 7 7
10 11 11 11 10 10 10 10 9 9 8 8 7 8 8 6 6 7 7 8 7 6 6 6 6 6 6 6 8 8 6 4 2 2 4 10 12 11 10 9 8 8 7
10 9 8 10 10 8 8 8 6 7 7 6 5 6 4 3 3 5 8 9 8 7 7 7 7 7 6 5 7 8 4 5 3 2 5 13 12 11 10 9 8 8 8
11 9 9 8 8 7 5 6 4 3 5 5 5 5 3 2 3 4 4 5 5 7 5 6 7 5 5 4 3 5 5 4 2 2 7 13 12 12 11 10 9 9 9
12 11 10 9 7 4 4 4 4 3 3 3 4 4 3 2 2 2 2 3 4 3 3 3 3 4 3 3 4 3 3 2 1 2 6 13 12 11 11 10 10 10 10
12 11 10 9 7 5 3 2 4 3 4 4 4 3 3 2 2 2 2 2 2 2 3 2 2 2 2 3 3 3 2 2 2 3 5 11 12 11 12 12 11 11 11
11 10 10 10 8 6 4 3 2 4 3 4 4 5 4 2 2 1 1 1 2 2 2 2 3 2 2 2 3 3 3 3 2 3 4 7 12 12 12 13 12 12 12
10 10 9 9 9 7 6 5 4 4 4 3 4 5 4 3 3 2 2 2 2 2 2 2 3 2 3 3 3 4 3 3 3 3 4 4 6 11 13 13 13 13 13
10 9 9 9 10 8 5 4 3 3 4 3 3 4 4 4 4 3 3 2 2 3 2 2 2 2 2 2 2 3 3 2 3 4 4 5 5 6 10 14 14 14 14
10 9 8 7 9 9 7 5 4 3 3 3 3 4 4 5 5 4 3 2 3 2 2 3 2 2 2 3 3 4 3 3 4 5 5 4 4 5 5 10 15 14 15
11 10 9 7 8 7 6 5 3 3 3 3 3 3 4 4 4 4 3 3 3 2 2 2 2 2 2 3 4 3 3 4 4 3 3 3 4 5 6 7 7 10 15
13 11 10 9 8 6 5 5 4 4 3 3 4 5 5 4 4 3 2 3 3 3 3 3 2 3 3 2 2 2 3 4 3 3 3 2 3 3 3 4 5 4 6
14 12 11 9 10 8 5 4 3 3 3 4 3 4 5 4 4 4 3 2 3 2 3 3 2 2 2 2 1 1 2 2 2 3 3 3 3 2 2 4 4 4 3
14 13 12 10 10 9 7 5 4 3 2 3 3 4 4 5 5 3 4 3 2 2 2 3 3 3 3 2 1 1 1 1 1 1 2 2 2 2 2 2 3 4 4
15 14 11 11 10 9 7 6 7 5 5 4 4 4 5 5 5 4 4 3 2 2 2 4 3 3 3 3 2 2 2 1 1 1 1 1 2 2 2 2 2 3 3
15 15 12 11 10 9 8 7 6 5 4 4 4 4 5 5 5 4 4 3 3 3 3 2 2 3 2 3 2 2 2 2 3 2 2 1 1 1 2 2 2 2 3
14 14 13 11 10 10 9 9 8 7 5 5 4 4 4 4 4 5 4 4 3 3 3 3 2 3 3 3 3 2 2 2 2 2 2 2 2 2 2 2 2 2 3
Wind_Direction
105 106 105 106 107 108 107 107 107 106 104 102 102 103 104 104 104 104 105 107 109 110 110 109 107 104 100 98 96 94 95 94 97 99 99 100 100 101 103 108 110 103 109
111 109 109 109 110 111 109 107 108 108 107 106 106 106 106 107 107 107 109 110 110 111 112 111 110 108 108 106 104 102 105 108 111 112 111 107 103 100 97 90 92 109 112
111 112 110 112 112 111 109 108 111 111 111 110 109 109 108 108 109 111 112 111 110 111 112 113 112 112 110 111 110 110 115 120 128 132 132 121 110 105 101 96 100 109 112
114 112 109 114 113 112 110 110 112 113 113 114 113 111 111 111 111 112 112 113 114 115 115 116 116 115 115 116 116 119 125 139 153 164 160 132 118 113 111 108 109 112 115
111 109 111 115 114 113 113 113 113 116 116 116 116 114 115 115 114 114 115 115 117 117 118 120 120 119 120 122 124 131 141 163 191 220 125 102 104 121 120 119 120 121 120
118 117 116 117 115 114 112 114 115 117 120 120 120 120 122 122 120 120 120 119 119 120 119 122 125 126 126 129 136 145 176 223 254 218 123 117 118 130 128 128 128 129 129
120 120 123 121 120 118 116 114 115 118 123 125 127 127 128 127 126 128 128 125 123 125 125 125 129 133 137 144 153 173 236 268 269 192 113 116 127 136 135 134 135 135 136
123 123 128 127 127 126 123 120 123 125 130 133 134 134 132 132 132 133 134 135 133 133 135 137 138 143 149 158 181 213 252 276 259 143 112 119 135 142 140 141 144 145 145
128 128 134 137 137 135 131 129 129 132 134 139 141 143 143 141 140 141 143 145 143 146 148 149 151 156 163 177 204 231 256 277 284 220 122 122 142 147 149 150 151 152 155
129 131 138 142 142 144 139 138 136 137 140 145 151 153 155 153 153 154 155 157 158 162 166 168 165 170 179 195 217 237 255 276 248 195 123 138 152 156 157 158 160 161 162
127 136 143 139 148 154 147 144 149 151 155 157 161 168 172 174 168 172 163 161 165 172 179 180 182 190 193 208 223 236 252 253 247 156 129 149 159 160 161 166 170 172 175
141 139 137 140 150 152 145 148 162 166 165 180 166 175 189 189 170 157 157 167 175 185 191 194 196 200 208 210 215 224 243 233 231 158 146 156 160 164 168 173 179 182 186
149 148 146 144 142 141 142 155 164 157 161 181 165 168 174 183 166 153 160 171 186 195 201 192 200 212 212 207 204 205 225 237 198 146 150 160 165 171 176 182 187 192 194
151 156 151 140 131 137 141 143 154 160 164 161 153 170 166 175 169 153 169 174 187 196 192 198 198 212 214 216 219 214 225 231 180 134 159 167 173 179 186 191 196 201 203
153 156 145 136 134 136 135 172 164 161 167 159 155 171 175 171 160 156 168 182 192 186 183 198 205 206 217 229 235 233 244 255 215 163 158 177 181 188 194 199 203 208 210
152 149 142 143 145 151 167 199 163 170 168 165 163 170 179 163 150 153 166 206 209 204 189 197 210 207 224 235 240 239 242 242 231 180 170 185 194 197 201 205 209 212 213
151 149 148 153 152 161 176 192 178 181 169 173 164 163 170 167 159 183 197 213 201 210 197 200 211 209 221 220 231 240 241 237 228 215 193 185 196 206 208 209 210 211 214
156 154 164 168 157 165 180 197 189 185 162 168 164 163 177 174 178 197 208 209 195 205 204 202 206 211 234 232 225 239 233 224 231 226 218 202 195 202 209 213 212 211 214
158 158 169 165 158 168 178 190 206 184 173 179 172 168 178 186 187 203 205 195 208 218 220 225 177 209 228 236 235 227 230 221 222 234 229 223 210 199 197 207 210 212 218
162 163 170 171 164 170 177 189 205 196 185 187 177 171 171 191 194 211 203 196 207 218 228 222 216 222 236 240 258 244 229 225 212 226 229 228 226 213 203 200 199 213 220
168 169 173 180 170 176 184 188 192 194 198 186 182 176 179 197 196 206 244 192 204 210 220 218 230 236 244 242 262 281 259 237 212 211 209 216 218 218 198 179 185 197 206
172 173 175 180 176 182 182 188 190 192 203 193 193 165 176 191 197 204 213 224 215 209 219 221 219 253 261 236 226 275 283 290 266 226 199 204 207 200 198 192 180 183 186
174 175 180 180 174 182 178 185 199 185 213 203 178 167 187 193 194 209 194 217 224 215 210 222 220 226 249 262 231 216 231 252 279 269 222 192 186 185 201 189 182 177 182
177 178 177 173 174 179 181 191 196 193 200 202 184 175 187 198 197 200 204 209 221 232 208 222 210 233 240 260 256 231 223 230 251 298 305 236 197 198 200 214 196 167 172
180 178 175 171 175 179 188 194 200 205 204 196 189 180 187 191 199 205 200 199 208 231 231 226 208 231 242 248 257 245 237 235 231 223 251 251 251 217 191 190 196 183 170
181 177 173 170 177 181 191 198 201 211 209 206 196 182 192 194 195 205 201 192 206 226 235 230 225 228 240 255 267 262 232 228 234 229 234 229 222 240 210 185 185 175 158